Regional Weather Roundup
Issued by NWS

Home | Current Version | Previous Version | Text Only | Print | Product List | Glossary On
Versions: 1 2 3 4 5 6 7 8 9 10 11 12 13 14 15 16 17 18 19 20 21 22 23 24 25 26 27 28 29 30 31 32 33 34 35 36 37 38 39 40 41 42 43 44 45 46 47 48 49 50
000
ASUS44 KOUN 101810
RWROK

WEATHER ROUNDUP FOR OKLAHOMA
NATIONAL WEATHER SERVICE NORMAN OK
100 PM CDT THU JUL 10 2014

NOTE: "FAIR" INDICATES FEW OR NO CLOUDS BELOW 12,000 FEET WITH NO
      SIGNIFICANT WEATHER AND/OR OBSTRUCTIONS TO VISIBILITY.

OKZ001>007-009>012-014-015-017-101900-
NORTHWEST OKLAHOMA AND THE PANHANDLE

CITY           SKY/WX    TMP DP  RH WIND       PRES   REMARKS
GAGE           FAIR      88  69  53 SE18G26   30.00  HX  92
6HR MIN TEMP:  69; 6HR MAX TEMP:  88;

ENID/VANCE AFB PTSUNNY   79  72  78 SE13G21   29.99F
ENID/WOODRING  PTSUNNY   77  68  73 SE16      29.99
$$

OKZ016-021>023-033>039-044-045-101900-
SOUTHWEST OKLAHOMA

CITY           SKY/WX    TMP DP  RH WIND       PRES   REMARKS
LAWTON/REGL    FAIR      97  60  29 SW12      29.99  HX  97
6HR MIN TEMP:  73; 6HR MAX TEMP:  99;

LAWTON/FT SILL FAIR      95  64  35 SW8       29.98  HX  97
FREDERICK      FAIR      96  63  33 S10G22    29.97  HX  97
CLINTON        FAIR      94  60  32 S17       30.02  HX  94
HOBART         FAIR      95  60  31 SW10G21   30.00  HX  95
ALTUS AFB      SUNNY     96  64  34 S16G24    29.99  HX  97
$$

OKZ018>020-024>031-101900-
CENTRAL OKLAHOMA

CITY           SKY/WX    TMP DP  RH WIND       PRES   REMARKS
OKLAHOMA CITY  FAIR      85  71  63 SE13      30.02  HX  90
6HR MIN TEMP:  73; 6HR MAX TEMP:  85;

OKC/WILEY POST FAIR      84  71  65 SE10G18   30.01
OKC/TINKER AFB FAIR      81  71  71 S14       30.02
STILLWATER     LGT RAIN  80  66  62 SE14G21   30.00
GUTHRIE        FAIR      84  68  58 S15G22    30.00
$$

OKZ008-013-054>072-101900-
NORTHEAST OKLAHOMA

CITY           SKY/WX    TMP DP  RH WIND       PRES   REMARKS
TULSA          CLOUDY    71  67  87 NE8       30.01F THUNDER
6HR MIN TEMP:  65; 6HR MAX TEMP:  73; 6HR PCP:  1.24;

TULSA/JONES    PTSUNNY   73  67  81 S9        30.00
PONCA CITY     FAIR      79  67  66 VRB6      30.02
BARTLESVILLE   PTSUNNY   70  57  63 SE6       30.04
MUSKOGEE       PTSUNNY   70  68  93 E8        30.04F
$$

OKZ032-040>043-046>053-073>077-101900-
SOUTH CENTRAL/SOUTHEAST OKLAHOMA

CITY           SKY/WX    TMP DP  RH WIND       PRES   REMARKS
ARDMORE/DWNTWN FAIR      91  63  38 W6        30.01F HX  92
MCALESTER      FAIR      85  74  69 VRB6      30.04  HX  92
$$



USA.gov is the U.S. government's official web portal to all federal, state and local government web resources and services.